Theta_e
287 286 286 284 284 284 283 283 282 281 280 279 279 279 279 278 278 278 279 278 278 279
287 286 286 284 284 284 283 281 280 280 279 279 279 279 278 278 278 278 278 278 279 278
286 285 285 282 282 282 281 280 279 279 279 278 278 278 277 277 277 277 277 278 277 277
285 285 284 282 281 280 280 279 279 279 278 277 277 277 276 276 276 276 275 275 275 275
285 284 283 282 281 280 280 279 279 278 277 277 276 276 276 275 275 273 273 274 273 272
283 283 283 282 280 279 279 278 277 277 277 276 276 275 275 275 274 273 274 273 272 272
283 283 283 282 280 279 278 277 277 277 276 275 275 274 274 274 273 273 273 273 272 272
284 283 282 279 279 278 278 277 276 275 274 274 274 274 274 274 272 271 271 272 272 272
282 281 280 278 278 277 276 275 275 274 273 272 274 278 278 275 272 272 271 271 271 272
281 279 278 277 276 275 275 274 273 272 272 271 272 279 280 277 273 272 272 272 272 272
279 278 276 275 275 275 274 273 273 271 272 271 272 280 281 278 274 273 272 272 272 271
279 277 275 275 275 274 273 273 272 272 271 270 271 281 281 279 273 273 272 273 273 272
278 277 275 275 274 274 273 273 272 270 271 271 270 280 280 278 272 270 271 272 273 275
274 274 273 273 273 272 272 271 271 269 269 270 269 275 280 280 272 270 269 270 270 273
Wind_Speed
17 11 11 12 10 10 11 10 10 9 8 8 8 7 7 4 3 5 5 6 4 2
14 15 14 12 11 10 8 7 10 11 10 9 9 9 8 5 6 5 4 5 4 3
15 14 12 9 13 11 9 10 12 13 12 10 9 9 8 5 6 7 5 4 4 4
14 14 12 12 12 13 13 14 15 15 14 13 11 9 8 7 7 7 8 5 5 4
14 14 14 14 14 14 15 14 15 15 15 14 12 10 10 10 8 9 8 8 6 5
14 15 18 16 15 15 15 14 14 16 16 15 13 12 9 9 9 8 8 9 8 7
17 19 17 15 15 16 16 16 15 15 15 14 13 12 12 11 10 9 8 9 8 8
17 14 13 14 15 15 15 15 16 15 13 13 12 11 13 12 11 10 9 7 7 7
13 15 16 15 16 15 14 14 14 14 15 15 10 21 23 15 11 10 9 8 8 8
15 16 16 16 16 17 17 15 14 14 14 14 12 24 24 21 11 10 8 8 7 8
15 14 14 15 16 16 16 17 16 14 14 13 11 26 27 25 11 9 10 8 9 8
16 16 16 17 17 15 14 14 15 13 13 13 11 25 25 20 11 10 9 9 8 7
9 12 15 14 14 12 12 12 10 12 11 12 12 25 24 18 8 9 8 7 8 10
9 10 11 11 10 11 11 11 11 11 10 12 12 13 23 23 9 8 7 6 5 6
Wind_Direction
192 191 194 188 188 191 195 192 179 179 164 161 159 156 159 167 183 139 138 149 148 147
196 197 199 184 184 184 181 166 164 170 168 166 163 164 163 168 174 154 144 146 139 132
202 197 197 172 179 178 167 158 164 167 167 169 168 164 165 167 170 150 138 136 121 101
201 194 191 183 178 174 165 168 173 170 165 169 172 171 166 169 175 152 133 128 138 157
196 191 188 191 182 169 171 171 170 168 168 170 170 171 173 169 174 155 152 154 153 169
196 195 202 193 178 171 167 169 167 172 172 170 170 170 174 169 173 165 160 161 171 176
199 201 200 187 178 175 173 169 173 176 169 171 166 168 171 173 172 162 165 171 177 185
201 194 193 181 174 172 172 174 173 166 170 167 167 171 175 180 169 160 160 174 190 195
188 179 185 177 172 169 169 167 169 175 170 168 174 184 186 171 160 164 172 183 197 210
179 182 180 173 169 173 174 165 173 172 169 172 174 186 185 175 163 163 173 189 202 209
182 182 169 173 178 175 170 172 173 176 177 173 178 185 183 176 165 162 174 190 206 212
182 178 172 179 181 174 168 175 175 173 172 171 180 187 184 174 161 164 182 200 207 210
177 176 177 177 176 172 173 170 171 162 171 170 175 188 187 173 161 172 176 196 207 212
162 167 166 164 165 160 163 157 170 160 159 160 174 190 188 184 178 171 181 183 205 203